Twentynine Palms, CA

9:49 PM PDT on August 31, 2016 (GMT -0700)
Twentynine Palms Expeditionary Air Field

Weather History for KNXP - October, 2013

Change the Weather History Date:

Thursday, October 17, 2013

  Actual Average Record
Temperature  
Mean Temperature 63 °F -  
Max Temperature 80 °F 80 °F 91 °F (2003)
Min Temperature 46 °F 54 °F 46 °F (2013)
Degree Days  
Heating Degree Days 2    
Growing Degree Days 13 (Base 50)    
Moisture  
Dew Point 15 °F    
Average Humidity 17    
Maximum Humidity 27    
Minimum Humidity 9    
Precipitation  
Precipitation 0.00 in - - ()
Sea Level Pressure  
Sea Level Pressure 29.91 in    
Wind  
Wind Speed 5 mph (WNW)    
Max Wind Speed 9 mph    
Max Gust Speed -    
Visibility 10 miles    
Events      
Averages and records for this station are not official NWS values.
T = Trace of Precipitation, MM = Missing Value Source: NWS Daily Summary

Daily Weather History Graph

Daily Weather History Graph

Search for Another Location

Airport or City:

Trip Planner

Search our weather history database for the weather conditions in past years. The results will help you decide how hot, cold, wet, or windy it might be!

Date:

Astronomy

Oct. 17, 2013 Rise Set
Actual Time 6:51 AM PDT 6:07 PM PDT
Civil Twilight 6:26 AM PDT 6:32 PM PDT
Nautical Twilight 5:57 AM PDT 7:01 PM PDT
Astronomical Twilight 5:28 AM PDT 7:30 PM PDT
Moon 5:22 PM PDT (10/17) 5:31 AM PDT (10/17)
Length of Visible Light 12h 06m
Length of Day
11h 15m
Waxing Gibbous, 98% of the Moon is Illuminated
Oct 17
Waxing Gibbous
Oct 18
Full
Oct 26
Last Quarter
Nov 3
New
Nov 9
First Quarter

Hourly Weather History & Observations

Time (PDT) Temp. Dew Point Humidity Pressure Visibility Wind Dir Wind Speed Gust Speed Precip Events Conditions
12:56 AM 53.1 °F 14.0 °F 21% 30.07 in 10.0 mi WNW 6.9 mph - N/A   Clear
1:56 AM 51.1 °F 14.0 °F 23% 29.40 in 9.0 mi NW 9.2 mph - N/A   Clear
2:56 AM 48.9 °F 14.0 °F 25% 29.40 in 10.0 mi WNW 3.5 mph - N/A   Clear
3:56 AM 50.0 °F 14.0 °F 24% 29.39 in 10.0 mi WNW 4.6 mph - N/A   Clear
4:56 AM 46.9 °F 14.0 °F 27% 30.07 in 10.0 mi NW 4.6 mph - N/A   Clear
5:56 AM 50.0 °F 14.0 °F 24% 30.08 in 10.0 mi WNW 5.8 mph - N/A   Clear
6:56 AM 48.9 °F 14.0 °F 25% 30.09 in 7.0 mi NW 5.8 mph - N/A   Clear
7:56 AM 48.9 °F 14.0 °F 25% 30.11 in 10.0 mi NNW 4.6 mph - N/A   Clear
8:56 AM 54.0 °F 15.1 °F 22% 30.12 in 8.0 mi NNW 3.5 mph - N/A   Clear
9:56 AM 61.0 °F 15.1 °F 17% 30.10 in 10.0 mi NW 3.5 mph - N/A   Clear
10:56 AM 66.9 °F 16.0 °F 14% 30.07 in 10.0 mi NW 3.5 mph - N/A   Clear
11:56 AM 73.0 °F 17.1 °F 12% 30.04 in 10.0 mi WNW 3.5 mph - N/A   Clear
12:56 PM 75.9 °F 17.1 °F 11% 30.01 in 10.0 mi Calm Calm - N/A   Clear
1:56 PM 77.0 °F 17.1 °F 10% 29.98 in 10.0 mi NNW 3.5 mph - N/A   Clear
2:56 PM 78.1 °F 16.0 °F 10% 29.96 in 10.0 mi WNW 3.5 mph - N/A   Clear
3:56 PM 78.1 °F 16.0 °F 10% 29.95 in 10.0 mi West 4.6 mph - N/A   Clear
4:56 PM 80.1 °F 16.0 °F 9% 29.94 in 10.0 mi Calm Calm - N/A   Clear
5:56 PM 77.0 °F 16.0 °F 10% 29.93 in 10.0 mi Calm Calm - N/A   Clear
6:56 PM 68.0 °F 16.0 °F 14% 29.95 in 10.0 mi South 3.5 mph - N/A   Clear
7:56 PM 63.0 °F 15.1 °F 16% 29.97 in 10.0 mi West 5.8 mph - N/A   Clear
8:56 PM 62.1 °F 15.1 °F 16% 29.98 in 10.0 mi Calm Calm - N/A   Clear
9:56 PM 62.1 °F 16.0 °F 17% 29.32 in 10.0 mi Calm Calm - N/A   Clear
10:56 PM 60.1 °F 16.0 °F 18% 29.98 in 10.0 mi West 6.9 mph - N/A   Clear
11:56 PM 57.9 °F 15.1 °F 19% 29.98 in 10.0 mi West 8.1 mph - N/A   Clear